World > North America > United States > Ohio > Noble  

Noble, OH Hourly Weather Updates

Feedback E-mail the Weather

Quick Clicks

Noble, OH Weather Maps

°F °C°F °C
Noble Weather Map
UTC Time: 6/20/2024, 00:29
Your Time:

Noble, OH Regional Weather

Expires:202406200100;;320676
ASUS41 KCLE 200012
RWRCLE
OHIO REGIONAL WEATHER ROUNDUP
NATIONAL WEATHER SERVICE WILMINGTON, OH
800 PM EDT WED JUN 19 2024

NOTE: "FAIR" INDICATES FEW OR NO CLOUDS BELOW 12,000 FEET WITH NO
SIGNIFICANT WEATHER AND/OR OBSTRUCTIONS TO VISIBILITY.


OHZ009>014-019>023-028>033-038-089-200100-
   NORTHEAST OHIO
  
CITY           SKY/WX    TMP DP  RH WIND       PRES   REMARKS
CLE-HOPKINS    FAIR      88  71  57 S7        30.21F HX  94           
CLE-LAKEFRONT  FAIR      91  72  53 S9        30.21S HX  98           
CUY CO. ARPT   CLEAR     88  73  62 SW8       30.24S HX  96           
LORAIN-ELYRIA  FAIR      88  72  58 S7        30.23S HX  94           
ASHTABULA      FAIR      85  73  67 S6        30.26S HX  91           
AKRON-CANTON   MOCLDY    83  71  67 S7        30.28S                  
WOOSTER        FAIR      84  73  69 S10       30.27F HX  90           
MANSFIELD      FAIR      85  72  65 S12       30.27S HX  91           
YOUNGSTOWN     MOCLDY    84  71  65 SW6       30.28S                  
$$
 

SKY/WX - Weather  TMP - Temperature  DP - Dew Point  RH - Humidity
WIND - Wind Direction/Speed PRES - Barometric Pressure VSB - Visibility
WCI - Wind Chill Index E13G22 Wind - East Wind 13 mph/Gusts of 22 mph

Trending Headlines

Trending Entertainment Headlines

Noble Radar Loop

Use the map search tool if you want to place a location marker on the radar map...

Noble Quick Facts

National Two Day Weather Forecast


E-mail the Noble Weather Forecast

Voice your opinion or tell us about page issues...